Date String (YYYY-MM-DD hh:mm:ss) UTC,Instrument flags,absolute air pressure of the measurement (hPa),sample flow rate (lpm),inlet stack bypass flow (lpm),air temperature of the measurement (°C),ambient temperature measured by the external sensor (°C),aerosol sample conditioner tube jacket temperature (°C),OPC LED temperature (°C),internal box temperature (°C),relative humidity of the measurement (%),span deviation,mass concentration of particles derived from Lorenz-Mie calculation of OPC scattering (μg/m³),mass concentration of particles derived from Lorenz-Mie calculation of OPC scattering (μg/m³),mass concentration of particles derived from Lorenz-Mie calculation of OPC scattering (μg/m³)
DateTimeUTC,F1_M11,P_M11,Q1_M11,Q2_M11,T1_M11,T2_M11,T3_M11,T4_M11,T5_M11,U1_M11,ZSPAN_M11,X2_M11,X0_M11,X1_M11
2023-12-26 07:00:00,SystemResetWarning,0824.0,5.00,000.00,018.9,018.5,000.0,027.2,020.2,9.9,0000.0,0002.91,0003.93,0002.74
2023-12-26 07:01:00,SystemResetWarning,0824.0,5.00,000.00,018.9,018.4,000.0,027.2,020.2,10.1,0000.0,0002.96,0004.09,0002.75
2023-12-26 07:02:00,SystemResetWarning,0824.0,4.99,000.00,018.9,018.4,000.0,027.2,020.1,10.3,0000.0,0002.97,0003.70,0002.75
2023-12-26 07:03:00,SystemResetWarning,0824.0,5.00,000.00,018.9,018.3,000.0,027.2,020.1,10.4,0000.0,0002.97,0003.53,0002.75
2023-12-26 07:04:00,SystemResetWarning,0824.0,5.00,000.00,018.9,018.3,000.0,027.2,020.1,10.8,0000.0,0002.98,0003.55,0002.75
2023-12-26 07:05:00,SystemResetWarning,0824.0,5.00,000.00,018.9,018.2,000.0,027.2,020.1,11.4,0000.0,0002.99,0003.58,0002.75
2023-12-26 07:06:00,SystemResetWarning,0823.9,5.00,000.00,018.8,018.2,000.0,027.2,020.0,11.7,0000.0,0002.99,0003.71,0002.74
2023-12-26 07:07:00,SystemResetWarning,0824.0,5.01,000.00,018.8,018.1,000.0,027.2,020.0,11.2,0000.0,0003.02,0003.81,0002.74
2023-12-26 07:08:00,SystemResetWarning,0824.0,5.00,000.00,018.8,018.1,000.0,027.2,020.0,10.6,0000.0,0002.98,0003.84,0002.71
2023-12-26 07:09:00,SystemResetWarning,0824.0,5.00,000.00,018.8,018.1,000.0,027.2,020.0,10.6,0000.0,0002.98,0003.88,0002.70
2023-12-26 07:10:00,SystemResetWarning,0824.0,5.00,000.00,018.8,018.0,000.0,027.2,020.0,11.0,0000.0,0003.01,0003.98,0002.71
2023-12-26 07:11:00,SystemResetWarning,0824.0,4.99,000.00,018.8,018.0,000.0,027.2,020.0,11.3,0000.0,0003.02,0004.04,0002.72
2023-12-26 07:12:00,SystemResetWarning,0823.9,5.00,000.00,018.8,018.0,000.0,027.2,020.0,11.5,0000.0,0003.04,0004.08,0002.74
2023-12-26 07:13:00,SystemResetWarning,0824.0,5.00,000.00,018.8,017.9,000.0,027.2,020.0,11.4,0000.0,0003.07,0004.25,0002.75
2023-12-26 07:14:00,SystemResetWarning,0824.0,5.00,000.00,018.8,017.9,000.0,027.2,020.0,10.9,0000.0,0003.09,0004.30,0002.77
2023-12-26 07:15:00,SystemResetWarning,0824.0,5.00,000.00,018.8,017.9,000.0,027.2,020.0,10.4,0000.0,0003.10,0004.34,0002.79
2023-12-26 07:16:00,SystemResetWarning,0824.0,5.00,000.00,018.7,017.8,000.0,027.2,020.0,10.4,0000.0,0003.13,0004.41,0002.81
2023-12-26 07:17:00,SystemResetWarning,0824.0,5.00,000.00,018.7,017.8,000.0,027.2,020.0,11.1,0000.0,0003.14,0004.36,0002.82
2023-12-26 07:18:00,SystemResetWarning,0824.0,5.00,000.00,018.7,017.8,000.0,027.2,020.0,11.0,0000.0,0003.13,0004.30,0002.83
2023-12-26 07:19:00,SystemResetWarning,0824.0,4.99,000.00,018.7,017.8,000.0,027.2,020.0,10.5,0000.0,0003.16,0004.66,0002.87
2023-12-26 07:20:00,SystemResetWarning,0824.0,5.00,000.00,018.7,017.7,000.0,027.2,020.0,10.6,0000.0,0003.18,0005.18,0002.91
2023-12-26 07:21:00,SystemResetWarning,0824.0,4.99,000.00,018.7,017.7,000.0,027.2,020.0,11.2,0000.0,0003.18,0005.12,0002.94
2023-12-26 07:22:00,SystemResetWarning,0824.0,5.01,000.00,018.7,017.7,000.0,027.2,020.0,11.8,0000.0,0003.19,0005.14,0002.96
2023-12-26 07:23:00,SystemResetWarning,0824.0,5.01,000.00,018.7,017.7,000.0,027.1,020.0,11.8,0000.0,0003.20,0005.41,0002.97
2023-12-26 07:24:00,SystemResetWarning,0823.9,5.00,000.00,018.7,017.7,000.0,027.2,020.0,11.7,0000.0,0003.19,0005.28,0002.98
2023-12-26 07:25:00,SystemResetWarning,0823.9,5.00,000.00,018.7,017.6,000.0,027.2,020.0,11.1,0000.0,0003.18,0005.22,0002.98
2023-12-26 07:26:00,SystemResetWarning,0823.9,4.99,000.00,018.7,017.6,000.0,027.2,020.0,10.6,0000.0,0003.18,0005.19,0002.99
2023-12-26 07:27:00,SystemResetWarning,0824.0,4.99,000.00,018.7,017.6,000.0,027.2,020.0,10.3,0000.0,0003.18,0005.18,0003.00
2023-12-26 07:28:00,SystemResetWarning,0824.0,5.00,000.00,018.7,017.6,000.0,027.2,020.0,10.5,0000.0,0003.16,0005.20,0002.99
2023-12-26 07:29:00,SystemResetWarning,0824.0,5.01,000.00,018.7,017.6,000.0,027.2,020.0,9.9,0000.0,0003.19,0005.52,0003.01
2023-12-26 07:30:00,SystemResetWarning,0823.9,5.01,000.00,018.7,017.6,000.0,027.2,020.0,9.3,0000.0,0003.22,0006.52,0003.03
2023-12-26 07:31:00,SystemResetWarning,0824.0,5.00,000.00,018.7,017.6,000.0,027.2,020.0,9.1,0000.0,0003.25,0005.79,0003.09
2023-12-26 07:32:00,SystemResetWarning,0824.0,5.00,000.00,018.7,017.5,000.0,027.2,020.0,9.1,0000.0,0003.28,0005.71,0003.12
2023-12-26 07:33:00,SystemResetWarning,0823.9,5.00,000.00,018.7,017.5,000.0,027.2,020.1,9.2,0000.0,0003.30,0005.73,0003.14
2023-12-26 07:34:00,SystemResetWarning,0823.9,5.00,000.00,018.8,017.9,000.0,027.2,020.4,9.0,0000.0,0003.29,0005.41,0003.15
2023-12-26 07:35:00,SystemResetWarning,0824.0,5.00,000.00,018.9,018.7,000.0,027.2,020.8,8.9,0000.0,0003.29,0005.25,0003.16
2023-12-26 07:36:00,SystemResetWarning,0824.0,4.99,000.00,019.0,018.9,000.0,027.2,020.7,8.9,0000.0,0003.29,0005.22,0003.16
2023-12-26 07:37:00,SystemResetWarning,0823.9,4.99,000.00,019.0,018.9,000.0,027.2,020.5,8.7,0000.0,0003.28,0005.17,0003.15
2023-12-26 07:38:00,SystemResetWarning,0823.9,5.01,000.00,019.0,018.8,000.0,027.2,020.3,8.7,0000.0,0003.26,0005.47,0003.13
2023-12-26 07:39:00,SystemResetWarning,0823.8,5.00,000.00,019.0,018.7,000.0,027.2,020.3,9.0,0000.0,0003.26,0006.02,0003.12
2023-12-26 07:40:00,SystemResetWarning,0823.8,5.01,000.00,019.0,018.5,000.0,027.2,020.2,8.9,0000.0,0003.23,0005.91,0003.11
2023-12-26 07:41:00,SystemResetWarning,0823.8,5.00,000.00,018.9,018.4,000.0,027.2,020.2,8.9,0000.0,0003.19,0004.70,0003.09
2023-12-26 07:42:00,SystemResetWarning,0823.8,5.00,000.00,018.9,018.4,000.0,027.2,020.2,9.0,0000.0,0003.15,0004.70,0003.02
2023-12-26 07:43:00,SystemResetWarning,0823.8,5.00,000.00,018.9,018.3,000.0,027.2,020.1,8.6,0000.0,0003.10,0004.63,0002.92
2023-12-26 07:44:00,SystemResetWarning,0823.8,5.00,000.00,018.9,018.2,000.0,027.2,020.1,8.5,0000.0,0003.03,0004.60,0002.83
2023-12-26 07:45:00,SystemResetWarning,0823.8,4.99,000.00,018.8,018.2,000.0,027.2,020.0,8.3,0000.0,0002.97,0004.64,0002.76
2023-12-26 07:46:00,SystemResetWarning,0823.8,5.00,000.00,018.8,018.2,000.0,027.2,020.0,8.2,0000.0,0002.89,0004.56,0002.70
2023-12-26 07:47:00,SystemResetWarning,0823.8,5.00,000.00,018.8,018.1,000.0,027.2,020.0,8.2,0000.0,0002.85,0004.55,0002.65
2023-12-26 07:48:00,SystemResetWarning,0823.8,5.00,000.00,018.8,018.0,000.0,027.2,020.0,8.3,0000.0,0002.82,0004.55,0002.60
2023-12-26 07:49:00,SystemResetWarning,0823.8,5.01,000.00,018.8,018.0,000.0,027.2,020.0,8.4,0000.0,0002.78,0004.27,0002.56
2023-12-26 07:50:00,SystemResetWarning,0823.8,5.00,000.00,018.8,017.9,000.0,027.2,020.0,8.3,0000.0,0002.74,0003.48,0002.51
2023-12-26 07:51:00,SystemResetWarning,0823.8,5.00,000.00,018.7,017.8,000.0,027.2,020.0,8.3,0000.0,0002.68,0003.40,0002.47
2023-12-26 07:52:00,SystemResetWarning,0823.8,5.00,000.00,018.7,017.8,000.0,027.2,020.0,8.2,0000.0,0002.62,0003.32,0002.42
2023-12-26 07:53:00,SystemResetWarning,0823.8,5.00,000.00,018.7,017.7,000.0,027.2,020.0,8.2,0000.0,0002.56,0003.14,0002.38
2023-12-26 07:54:00,SystemResetWarning,0823.8,5.00,000.00,018.7,017.7,000.0,027.2,020.0,8.1,0000.0,0002.53,0003.10,0002.33
2023-12-26 07:55:00,SystemResetWarning,0823.8,5.00,000.00,018.7,017.7,000.0,027.2,020.0,8.1,0000.0,0002.52,0003.12,0002.28
2023-12-26 07:56:00,SystemResetWarning,0823.8,5.00,000.00,018.7,017.7,000.0,027.2,020.0,8.0,0000.0,0002.50,0003.18,0002.24
2023-12-26 07:57:00,SystemResetWarning,0823.8,5.00,000.00,018.7,017.6,000.0,027.2,020.0,8.0,0000.0,0002.47,0003.10,0002.22
2023-12-26 07:58:00,SystemResetWarning,0823.8,5.00,000.00,018.7,017.6,000.0,027.2,020.0,8.1,0000.0,0002.43,0003.04,0002.19
2023-12-26 07:59:00,SystemResetWarning,0823.8,5.00,000.00,018.7,017.6,000.0,027.2,020.0,8.2,0000.0,0002.39,0003.01,0002.16
